Location: Unspecified
(0.0000°N, 0.0000°E)
Time: 01:29:04
(UTC+00:00)

CUBEBUG 2 - Visible Passes

Search period start: 12 December 2019 00:00
Search period end: 22 December 2019 00:00
Orbit: 587 x 697 km, 97.6° (Epoch: 10 December)

Date Brightness Start Highest point End Pass type
(mag) Time Alt. Az. Time Alt. Az. Time Alt. Az.
12 Dec ? 04:34:51 10° NNE 04:39:01 51° ESE 04:43:05 10° S visible
13 Dec ? 04:58:49 10° N 05:03:04 67° WNW 05:07:14 10° SSW visible
14 Dec ? 03:50:22 10° E 03:50:45 10° ESE 03:51:08 10° ESE visible
14 Dec ? 05:23:25 10° NNW 05:27:06 29° WNW 05:30:44 10° SW visible
15 Dec ? 04:11:28 10° NE 04:14:48 23° E 04:18:07 10° SSE visible
16 Dec ? 04:34:44 10° NNE 04:38:52 52° ESE 04:42:55 10° S visible
17 Dec ? 04:58:43 10° N 05:02:55 66° WNW 05:07:02 10° SSW visible
18 Dec ? 03:50:10 10° E 03:50:36 10° ESE 03:51:01 10° ESE visible
18 Dec ? 05:23:20 10° NNW 05:26:56 28° WNW 05:30:31 10° SW visible
19 Dec ? 04:11:19 10° NE 04:14:39 23° ESE 04:17:56 10° SSE visible
20 Dec ? 04:34:37 10° NNE 04:38:42 52° ESE 04:42:44 10° S visible
21 Dec ? 04:58:36 10° N 05:02:44 64° WNW 05:06:50 10° SSW visible
